Location: Brabourne
(51.1333°N, 1.0000°E)
Time: 12:28:58
(UTC+00:00)

ADEOS Rocket - Pass Details

Date: 24 October 2021
Orbit: 858 x 1307 km, 98.8° (Epoch: 26 November)

Event Time Altitude Azimuth Distance (km) Brightness Sun altitude
Exits shadow 23:10:43 16° 17° (NNE) 2,684 5.6 -50.5°
Drops below altitude 10° 23:12:36 10° 4° (N) 3,094 6.1 -50.6°
Sets 23:15:43 0° 350° (N) 3,987 6.8 -50.6°
